Weather in Dolakovo

Russia / Republic of Ingushetia     43°14′17″N   44°36′10″E
temp.,
°C
wind,
m/s
gust,
m/s
humid.,
%
clouds,
%
prec.,
mm/h
press.,
hPa
HPBL,
m
5 august, thu
thu500:00+23wsw126499 0.0 101518
03:00+21s117166 0.0 101411
06:00+21se118412 0.0 101541
09:00+26wnw11585 0.0 1015779
12:00+30nnw22440 0.0 10131596
15:00+32nnw22372 0.0 10122176
18:00+30nw11493 0.0 101241
21:00+24se12594 0.0 101311
6 august, fri
fri600:00+21sse11720 0.0 101211
03:00+20se11670 0.0 101111
06:00+21ese11630 0.0 101212
09:00+28e24460 0.0 1010682
12:00+33e44300 0.0 10081548
15:00+35ese45260 0.0 10061947
18:00+32sse11370 0.0 100515
21:00+24e48460 0.0 1007168
7 august, sat
sat700:00+21ese1258100 0.0 100715
03:00+20ese115215 0.0 100611
06:00+20wsw11595 0.0 100611
09:00+27nnw11435 0.0 1005414
12:00+34ne12260 0.0 10031214
15:00+37se12224 0.0 10021787
18:00+32sw333991 0.0 100252
21:00+26sw2250100 0.0 100414
8 august, sun
sun800:00+25wnw224697 0.0 100635
03:00+23w3554100 0.0 1007102
06:00+22wsw23660 0.0 101066
09:00+28w464852 0.0 1010919
12:00+32nw443716 0.0 10091869
15:00+33nnw333319 0.0 10092332
18:00+31n234228 0.0 101084
21:00+24wnw22608 0.3 101338
9 august, mon
mon900:00+21sse128490 2.3 101412
03:00+20ene118527 2.7 101311
06:00+22ese11785 0.0 101317
09:00+28nne135519 0.0 1014849
12:00+32ene3338100 0.0 10121540
15:00+34e3433100 0.0 10112233
18:00+23wsw5979100 0.6 1013258
21:00+20sse129473 3.2 101522